Showing default

LAGEOS 1, 8820

Orbit data source: Space-Track

LAGEOS 1, 8820 is a payload satellite owned by NASA MSFC (US) that was launched on Tue, 04 May 1976 UTC via a DELTA 2913 launch vehicle from the Air Force Western Test Range (AFWTR). Payload-class satellites include a variety of spacecraft equipped with specific instruments for various scientific and technological missions. These include communications satellites like Starlink; space stations such as the ISS; scientific satellites like the Hubble; Earth observation satellites from companies like Planet Labs, Umbra, and HawkEye 360; GPS; miniature CubeSats for education and research; and military/defense satellites.

Loading next visibility...
Identifier
8820, 1976-039A
Orbit
Active
Country
Flag of USUS
Related business
Manufacturer
Bendix
Mission
Operational Civil Geodetic
Bus & Motor
LAGEOS, Unknown motor
Mass
411 kg wet, 411 kg dry
Launch date (UTC)
1976-05-04 (49 years ago)
Launch vehicle
DELTA 2913
Launch site
Air Force Western Test Range (AFWTR)
Object type
Payload
Rocket body
Debris
Shape & HBR
Sphere, 0.3 m
Radar Cross Section
0.283 m², Medium (>0.1 m² and < 1m²)

Expand to show TLE details & history
Last TLE update: 1 day ago

TLE from 1 day ago
0 LAGEOS 1
1 08820U 76039A   25257.34624802  .00000035  00000-0  00000-0 0  9991
2 08820 109.8453  84.8670 0044660   1.3155  64.3962  6.38664836895527
Epoch: 2025-09-14T08:18Z
TLE epoch observation values (Epoch: 2025-09-14T08:18:35.828Z)
Latitude
59.43687°
Longitude
-70.86512°
Altitude
5,879.01 km
Speed
5.712 km/s
True Right ascension
03h 09m 24s
True Declination
59° 20' 57"
Sunlit
Object was in daylight at epoch
Visualization orbit readout
Latitude
Unknown
Longitude
Unknown
Altitude
Unknown
Speed
Unknown
Apparent Right ascension
Unknown
Apparent Declination
Unknown
Sunlit
N/A
Visualization observer readout
Local Sidereal Time
01:43:06
Azimuth
Unknown
Elevation
Unknown
Doppler factor
Unknown
Orbital elements
Apogee altitude
5,946.679 km
Perigee altitude
5,837.084 km
Semi-major axis
12,270.019 km
Eccentricity
0.00447
Inclination
109.8453°
RAAN
84.867°
Arg. of periapsis
1.3155°
True anomaly
64.85882°
Mean anomaly
64.3962°
Eccentric anomaly
64.6274°
Mean motion
1.59689 °/min
Orbital period
225.44 mins
BSTAR
0
Loading maneuver chart data...
Computing Atmospheric mass density...
Loading historical data...
Loading historical data...
Loading historical data...
Loading historical data...
Loading historical data...
Loading historical data...
Loading historical data...
Other satellites on launch #39 in the year 1976 (1976-05-04 UTC)

Documentation

Showing up to 5 results
|